Location: Bidwell Hollow
(37.7387°N, 90.1707°W)
Time: 23:27:47
(UTC+00:00)

Transit 2A - Pass Details

Date: 16 May 2026
Orbit: 595 x 949 km, 66.7° (Epoch: 6 June)

Event Time Altitude Azimuth Distance (km) Brightness Sun altitude
Rises 05:04:37 0° 347° (NNW) 3,175 10.3 -31.8°
Reaches altitude 10° 05:08:18 10° 13° (NNE) 2,165 9.0 -32.0°
Maximum altitude 05:10:45 14° 44° (NE) 1,870 8.3 -32.1°
Enters shadow 05:11:22 13° 52° (NE) 1,874 8.2 -32.1°
